Regional Weather Roundup
Issued by NWS

Home | Current Version | Previous Version | Text Only | Print | Product List | Glossary On
Versions: 1 2 3 4 5 6 7 8 9 10 11 12 13 14 15 16 17 18 19 20 21 22 23 24 25 26 27 28 29 30 31 32 33 34 35 36 37 38 39 40 41 42 43 44 45 46 47 48 49 50
000
ASUS42 KTBW 200116
RWRFL
FLORIDA REGIONAL WEATHER ROUNDUP
NATIONAL WEATHER SERVICE TAMPA BAY RUSKIN FL
800 PM EST THU JAN 19 2017

NOTE: "FAIR" INDICATES FEW OR NO CLOUDS BELOW 12,000 FEET WITH NO
SIGNIFICANT WEATHER AND/OR OBSTRUCTIONS TO VISIBILITY.

FLZ001>010-012>015-112-114-115-200200-
PANHANDLE FLORIDA

CITY           SKY/WX    TMP DP  RH WIND       PRES   REMARKS
PENSACOLA      LGT RAIN  72  68  87 S14       29.86R
PENSACOLA NAS  LGT RAIN  70  68  93 S12       29.86R FOG
MILTON NAS     CLOUDY    70  67  90 S12       29.85
CRESTVIEW      CLOUDY    70  66  87 S6        29.87F
DUKE FIELD     CLOUDY    70  67  89 S10       29.85F
VALPARAISO     MOCLDY    71  68  90 S13       29.87F
MARY ESTHER    CLOUDY    70  57  62 S10       29.86S
PANAMA CITY    FAIR      70  67  90 SE8       29.89S
TYNDALL AFB    DRIZZLE   70  67  90 SE13      29.90S
APALACHICOLA   PTCLDY    68  68 100 SE12      29.91F

STATION/POSITION SKY/WX   TEMP    WIND        PRES    WAVE   SWELL
                          AIR SEA DIR/SP/G            HT/PER HT/PER
                          (F)     (DEG/KT/KT) (MB)    (FT/S) (FT/S)
30.1N   87.6W              69 66  170/ 10/ 12 1010.7    3/ 5   2/ 6
28.8N   86.0W              75 75              1012.5    3/ 4
PANAMA CITY BEAC              68  120/ 10/ 11 1012.4S
TOWER C                    70     170/ 17/ 18 1013.5F
28.5N   84.5W              73 73  160/ 14/ 16 1013.6    2/ 4

$$
FLZ011-016>038-118-127-128-134-139-239-200200-
NORTH FLORIDA

CITY           SKY/WX    TMP DP  RH WIND       PRES   REMARKS
MARIANNA       PTCLDY    70  64  81 S6        29.89S
TALLAHASSEE    CLOUDY    67  65  93 S6        29.93F
PERRY          PTCLDY    66  65  94 S3        29.96F
CROSS CITY     CLEAR     61  61 100 CALM      29.96F
LAKE CITY      MOCLDY    68  64  88 SW5       29.97R
GAINESVILLE    CLEAR     70  62  76 SW7       29.97R
WILLISTON      CLEAR     66  64  94 CALM      29.97F
PALATKA        CLOUDY    66  63  88 SE6       29.98S
MAYPORT NAS    PTCLDY    65  62  90 SE7       29.97F
JACKSONVILLE   MOCLDY    65  61  87 SE5       29.96S
JAX NAS        PTCLDY    67  61  81 SE6       29.97F
FERNANDINA BEA FAIR      66  63  88 SE5       29.96S
ST AUGUSTINE   CLEAR     63  61  93 SE6       29.99S

STATION/POSITION SKY/WX   TEMP    WIND        PRES    WAVE   SWELL
                          AIR SEA DIR/SP/G            HT/PER HT/PER
                          (F)     (DEG/KT/KT) (MB)    (FT/S) (FT/S)
SHELL POINT      NOT AVBL
KEATON BEACH               67     180/ 10/ 12 1014.4S
CEDAR KEY                  67     200/  3/  4 1015.2F
FERNANDINA                 65 67  130/  4/  7 1015.4F
30.7N   81.3W                 64                N/A     1
MAYPORT                    65 64  140/  3/  5 1015.2F
31.4N   80.9W              61 61   90/  6/  6 1015.4    1
ST AUGUSTINE               63 64  170/  6/  7 1016.2R

$$
FLZ040-043>046-052-053-057-058-063-144-200200-
INTERIOR CENTRAL FLORIDA

CITY           SKY/WX    TMP DP  RH WIND       PRES   REMARKS
OCALA          CLEAR     66  57  72 S3        29.98F
THE VILLAGES     N/A     68  68 100 CALM      29.89S
LEESBURG       CLEAR     70  61  73 NW3       29.99R
SANFORD        CLEAR     67  64  90 SE8       29.98S
ORLANDO EXEC   CLEAR     70  59  68 E8        29.98S
ORLANDO INTL   PTCLDY    67  59  75 SE5       29.98S
KISSIMMEE      CLEAR     68  62  81 CALM      29.99S
WINTER HAVEN   CLEAR     70  59  68 W6        30.00S
LAKELAND       CLEAR     64  61  88 CALM      30.00S
BARTOW         FAIR      68  59  73 W5        30.00S
OKEECHOBEE     PTCLDY    63  55  77 CALM      30.00S

$$
FLZ041-047-054-059-064-141-147-200200-
EAST CENTRAL FLORIDA

CITY           SKY/WX    TMP DP  RH WIND       PRES   REMARKS
DAYTONA BEACH  PTCLDY    64  64 100 CALM      29.99S
DELAND         CLEAR     66  63  88 E5        29.98S
NEW SMYRNA BEA PTCLDY    68  66  94 SE3       29.99S
JFK SPACE CTR  PTCLDY    65  64  94 SE3       29.98S
CAPE CANAVERAL PTCLDY    66  63  91 SE5       29.98S
PATRICK AFB    CLOUDY    70  67  90 CALM      29.99R
MELBOURNE      PTCLDY    70  65  84 S6        29.99S
VERO BEACH     CLOUDY    69  64  84 SE5       30.01R
FT PIERCE      MOCLDY    67  63  87 CALM      30.00S
STUART         CLEAR     73  64  73 SE6       30.02S

STATION/POSITION SKY/WX   TEMP    WIND        PRES    WAVE   SWELL
                          AIR SEA DIR/SP/G            HT/PER HT/PER
                          (F)     (DEG/KT/KT) (MB)    (FT/S) (FT/S)
TRIDENT PIER     NOT AVBL
28.4N   80.5W                 70                N/A     1/10
27.5N   80.2W                 76                N/A     1/ 8

$$
FLZ050-056-061-142-242-148-248-149-249-151-251-155-255-
160-260-200200-
WEST CENTRAL FLORIDA

CITY           SKY/WX    TMP DP  RH WIND       PRES   REMARKS
CRYSTAL RIVER  FAIR      61  59  94 CALM      29.98S
INVERNESS      FAIR      61  59  94 CALM      29.99S
BROOKSVILLE    CLEAR     62  57  83 CALM      29.99S
CLEARWATER AIR FAIR      66  61  82 S3        29.98S
ST PETE CLEARW MOCLDY    66  61  84 S5        29.98F
TAMPA INTL     PTCLDY    69  63  81 S8        29.99S
TAMPA EXEC     CLEAR     68  61  77 CALM      30.00S
PLANT CITY     CLEAR     68  63  83 SW3       30.01F
MACDILL AFB    PTCLDY    65  64  97 CALM      29.98F
PETER O KNIGHT CLOUDY    70  66  88 SW3       29.99F
ST PETERSBURG  PTCLDY    68  63  84 SW6       29.97S
SARASOTA       CLOUDY    70  60  70 S9        29.97F
VENICE         FAIR      68  64  88 S6        30.00F

STATION/POSITION SKY/WX   TEMP    WIND        PRES    WAVE   SWELL
                          AIR SEA DIR/SP/G            HT/PER HT/PER
                          (F)     (DEG/KT/KT) (MB)    (FT/S) (FT/S)
27.3N   84.2W                 78                N/A     2/ 3
CLEARWATER BEACH           69 68  170/  8/ 11 1015.2F
MIDDLE TAMPA BAY           68     200/  7/  8 1015.6F
VENICE                     69 69  160/  7/  7 1015.6R

$$
FLZ066-069-070-075>078-162-262-165-265-200200-
SOUTHWEST FLORIDA AND KEYS

CITY           SKY/WX    TMP DP  RH WIND       PRES   REMARKS
PUNTA GORDA    PTCLDY    65  62  90 S3        30.01S
FT MYERS       CLEAR     70  60  70 SW3       29.99F
SOUTHWEST INTL CLEAR     67  59  75 SW6       30.00S
NAPLES         CLEAR     68  64  87 CALM      30.00S
MARCO ISLAND   CLEAR     46 N/A N/A CALM      30.01S
MARATHON       PTCLDY    77  61  57 SE7       30.02R
KEY WEST NAS   CLEAR     71  60  68 SE8       30.01S
KEY WEST INTL  CLEAR     74  61  63 SE9       30.01S

STATION/POSITION SKY/WX   TEMP    WIND        PRES    WAVE   SWELL
                          AIR SEA DIR/SP/G            HT/PER HT/PER
                          (F)     (DEG/KT/KT) (MB)    (FT/S) (FT/S)
NAPLES                        72              1015.9F
26.0N   85.6W              75 76  140/ 14/ 16 1014.1    2/ 7   2/ 7
DRY TORTUGAS               75     130/  9/ 10 1015.7F
SAND KEY                   75     130/ 12/ 14 1016.7R
LONG KEY                   74 75  120/  3/  4 1016.6R

$$
FLZ067-068-071>074-168-172>174-200200-
SOUTHEAST FLORIDA

CITY           SKY/WX    TMP DP  RH WIND       PRES   REMARKS
W PALM BEACH   PTCLDY    72  61  68 S6        30.01S
BOCA RATON     PTCLDY    72  63  73 S6        30.01S
FT LAUDER-EXEC CLEAR     73  61  65 S5        30.01S
FT LAUDERDALE  PTCLDY    74  63  68 S5        30.01S
POMPANO BEACH  CLEAR     74  63  68 S6        30.01S
PEMBROKE PINES CLEAR     72  62  71 S3        30.02F
OPA LOCKA      CLEAR     72  63  73 S7        30.02S
MIAMI          PTCLDY    74  64  71 S5        30.02S
WEST KENDALL   CLEAR     71  63  75 S3        30.02S
HOMESTEAD      CLEAR     66  66 100 SE3       30.01S

STATION/POSITION SKY/WX   TEMP    WIND        PRES    WAVE   SWELL
                          AIR SEA DIR/SP/G            HT/PER HT/PER
                          (F)     (DEG/KT/KT) (MB)    (FT/S) (FT/S)
PORT EVERGLADES            74     190/  4/  7 1016.2F
VIRGINIA KEY               73 80  180/  5/  6 1016.8S
LAKE WORTH                 75 77  190/  9/ 11 1015.8F
FOWEY ROCKS                74 75  160/ 11/ 12 1017.0R

$$




USA.gov is the U.S. government's official web portal to all federal, state and local government web resources and services.